METEOR 2-5 DEB, 28973

Orbit data source: Space-Track

METEOR 2-5 DEB, 28973 is space debris in LEO originally from a launch on Wed, 31 Oct 1979 UTC launched from the Plesetsk Missile And Space Complex (PKMTR). Debris objects in space refer to the collection of defunct objects orbiting the Earth. Examples of debris include non-operational satellites, rocket bodies, and fragments generated from explosions, collisions, or faulty payload assembly.

Loading next visibility...
Identifier
28973, 1979-095J
Orbit
LEO
Country
Flag of CISCIS
Related business
Manufacturer
Unknown
Mission
Spacecraft
Bus & Motor
Unknown
Mass
Unknown
Launch date (UTC)
1979-10-31 (46 years ago)
Launch vehicle
Unknown
Launch site
Plesetsk Missile And Space Complex (PKMTR)
Object type
Payload
Rocket body
Debris
Shape & HBR
Unknown shape, 0.1 m
Radar Cross Section
Small (<0.1 m²)

Expand to show TLE details & history
Last TLE update: 1 day ago

TLE from 1 day ago
0 METEOR 2-5 DEB
1 28973U 79095J   25293.40085769  .00013552  00000-0  40258-2 0  9996
2 28973  81.1964 338.8871 0013259 130.8410 229.3931 14.43111222 72453
Epoch: 2025-10-20T09:37Z
TLE epoch observation values (Epoch: 2025-10-20T09:37:14.104Z)
Latitude
0.00001°
Longitude
165.47463°
Altitude
757.339 km
Speed
7.473 km/s
True Right ascension
22h 35m 32s
True Declination
0° 00' 00"
Sunlit
Object was in full shadow at epoch
Visualization orbit readout
Latitude
Unknown
Longitude
Unknown
Altitude
Unknown
Speed
Unknown
Apparent Right ascension
Unknown
Apparent Declination
Unknown
Sunlit
N/A
Visualization observer readout
Local Sidereal Time
08:37:55
Azimuth
Unknown
Elevation
Unknown
Doppler factor
Unknown
Orbital elements
Apogee altitude
754.815 km
Perigee altitude
735.925 km
Semi-major axis
7,123.507 km
Eccentricity
0.00133
Inclination
81.1964°
RAAN
338.8871°
Arg. of periapsis
130.841°
True anomaly
229.27787°
Mean anomaly
229.3931°
Eccentric anomaly
229.33548°
Mean motion
3.60996 °/min
Orbital period
99.72 mins
BSTAR
0.0040258
Loading maneuver chart data...
Computing Atmospheric mass density...

Documentation

Showing up to 5 results
|